Tracking 19242 objects as of 16-Aug-2018
HD Live streaming from Space Station
objects crossing your sky now

SL-12 DEB

Track SL-12 DEB now!
10-day predictions


NORAD ID: 42978
Int'l Code: 2010-041T
Perigee: 653.1 km
Apogee: 17,569.4 km
Inclination: 65.7 °
Period: 319.5 minutes
Semi major axis: 15482 km
RCS: Unknown
Launch date: September 2, 2010
Source: Commonwealth of Independent States (former USSR) (CIS)
Launch site: TYURATAM MISSILE AND SPACE COMPLEX (TTMTR)

Note: This is SATELLITE DEBRIS
aabbcc
Your satellite tracking list
Your tracking list is empty




NASA's NSSDC Master Catalog

Two Line Element Set (TLE):
1 42978U 10041T   18227.79943389  .00000059  00000-0  64041-3 0  9990
2 42978  65.6611  50.3291 5463107  60.0855 343.1488  4.50661302 15540
Source of the keplerian elements: AFSPC